• In Hungary
  • List of Countries
  • For 7 days
  • Water Temperature
  • Satellite Maps
  • Weather Map
  • News
  • Weather Widgets
  • user-avatar
    Login

    Hourly Weather Kaysersberg

    Today, 26 September, Wednesday

    Time Temperature Precipitation Wind Pressure Humidity
    00:00 +6°C° 0 mm 1 mps 738 mmHg 70%
    01:00 +6°C° 0 mm 1 mps 738 mmHg 69%
    02:00 +5°C° 0 mm 1 mps 737 mmHg 69%
    03:00 +5°C° 0 mm 1 mps 737 mmHg 68%
    04:00 +5°C° 0 mm 1 mps 737 mmHg 66%
    05:00 +5°C° 0 mm 1 mps 738 mmHg 64%
    06:00 +6°C° 0 mm 1 mps 738 mmHg 62%
    07:00 +9°C° 0 mm 1 mps 738 mmHg 55%
    08:00 +12°C° 0 mm 1 mps 738 mmHg 48%
    09:00 +16°C° 0 mm 1 mps 739 mmHg 40%
    10:00 +19°C° 0 mm 1 mps 739 mmHg 38%
    11:00 +20°C° 0 mm 1 mps 739 mmHg 35%
    12:00 +22°C° 0 mm 1 mps 739 mmHg 33%
    13:00 +22°C° 0 mm 1 mps 739 mmHg 34%
    14:00 +22°C° 0 mm 1 mps 738 mmHg 35%
    15:00 +22°C° 0 mm 1 mps 738 mmHg 36%
    16:00 +19°C° 0 mm 1 mps 738 mmHg 43%
    17:00 +15°C° 0 mm 0 mps 738 mmHg 51%
    18:00 +12°C° 0 mm 0 mps 738 mmHg 59%
    19:00 +11°C° 0 mm 0 mps 738 mmHg 60%
    20:00 +11°C° 0 mm 0 mps 738 mmHg 61%
    21:00 +11°C° 0 mm 1 mps 738 mmHg 62%
    22:00 +11°C° 0 mm 1 mps 738 mmHg 62%
    23:00 +11°C° 0 mm 1 mps 738 mmHg 63%

    Tomorrow, 27 September, Thursday

    Time Temperature Precipitation Wind Pressure Humidity
    00:00 +11°C° 0 mm 1 mps 738 mmHg 64%
    01:00 +10°C° 0 mm 1 mps 737 mmHg 65%
    02:00 +10°C° 0 mm 1 mps 737 mmHg 66%
    03:00 +10°C° 0 mm 1 mps 737 mmHg 66%
    04:00 +10°C° 0 mm 1 mps 737 mmHg 67%
    05:00 +10°C° 0 mm 1 mps 737 mmHg 68%
    06:00 +10°C° 0 mm 1 mps 737 mmHg 69%
    07:00 +13°C° 0 mm 1 mps 737 mmHg 62%
    08:00 +16°C° 0 mm 1 mps 737 mmHg 55%
    09:00 +21°C° 0 mm 1 mps 737 mmHg 48%
    10:00 +22°C° 0 mm 1 mps 736 mmHg 45%
    11:00 +23°C° 0 mm 1 mps 736 mmHg 42%
    12:00 +25°C° 0 mm 1 mps 736 mmHg 39%
    13:00 +25°C° 0 mm 1 mps 735 mmHg 40%
    14:00 +25°C° 0 mm 1 mps 735 mmHg 41%
    15:00 +25°C° 0 mm 1 mps 734 mmHg 42%
    16:00 +22°C° 0 mm 1 mps 734 mmHg 51%
    17:00 +19°C° 0 mm 1 mps 733 mmHg 60%
    18:00 +16°C° 0 mm 1 mps 733 mmHg 69%
    19:00 +15°C° 0 mm 1 mps 733 mmHg 72%
    20:00 +15°C° 0 mm 1 mps 733 mmHg 74%
    21:00 +14°C° 0 mm 1 mps 733 mmHg 77%
    22:00 +14°C° 0 mm 1 mps 732 mmHg 79%
    23:00 +13°C° 0 mm 1 mps 732 mmHg 81%

    Day after tomorrow, 28 September, Friday

    Time Temperature Precipitation Wind Pressure Humidity
    00:00 +13°C° 0 mm 1 mps 732 mmHg 82%
    01:00 +13°C° 0 mm 1 mps 731 mmHg 83%
    02:00 +12°C° 0 mm 1 mps 731 mmHg 83%
    03:00 +12°C° 0 mm 1 mps 731 mmHg 84%
    04:00 +12°C° 0 mm 1 mps 731 mmHg 84%
    05:00 +11°C° 0 mm 0 mps 731 mmHg 84%
    06:00 +11°C° 0 mm 0 mps 731 mmHg 83%
    07:00 +15°C° 0 mm 1 mps 731 mmHg 74%
    08:00 +18°C° 0 mm 1 mps 731 mmHg 66%
    09:00 +20°C° 0 mm 1 mps 731 mmHg 57%
    10:00 +21°C° 0 mm 1 mps 731 mmHg 54%
    11:00 +21°C° 0 mm 2 mps 731 mmHg 52%
    12:00 +23°C° 0 mm 2 mps 730 mmHg 49%
    13:00 +23°C° 0 mm 2 mps 730 mmHg 52%
    14:00 +21°C° 0 mm 2 mps 730 mmHg 55%
    15:00 +21°C° 0 mm 3 mps 729 mmHg 58%
    16:00 +19°C° 0 mm 3 mps 729 mmHg 62%
    17:00 +17°C° 0 mm 3 mps 730 mmHg 67%
    18:00 +16°C° 0 mm 3 mps 730 mmHg 71%
    19:00 +14°C° 0 mm 3 mps 730 mmHg 73%
    20:00 +13°C° 0 mm 3 mps 731 mmHg 74%
    21:00 +12°C° 0 mm 3 mps 731 mmHg 76%
    22:00 +12°C° 0 mm 3 mps 731 mmHg 79%
    23:00 +11°C° 0 mm 3 mps 731 mmHg 81%

    29 September, Saturday

    Time Temperature Precipitation Wind Pressure Humidity
    00:00 +10°C° 0 mm 3 mps 731 mmHg 84%
    01:00 +10°C° 0 mm 3 mps 732 mmHg 85%
    02:00 +9°C° 0 mm 3 mps 732 mmHg 86%
    03:00 +9°C° 0 mm 3 mps 732 mmHg 86%
    04:00 +8°C° 0 mm 3 mps 732 mmHg 86%
    05:00 +8°C° 0 mm 3 mps 732 mmHg 86%
    06:00 +8°C° 0 mm 3 mps 732 mmHg 85%
    07:00 +8°C° 0 mm 4 mps 732 mmHg 75%
    08:00 +11°C° 0 mm 4 mps 732 mmHg 66%
    09:00 +13°C° 0 mm 5 mps 733 mmHg 56%
    10:00 +14°C° 0 mm 5 mps 732 mmHg 51%
    11:00 +15°C° 0 mm 5 mps 732 mmHg 47%
    12:00 +16°C° 0 mm 5 mps 732 mmHg 42%
    13:00 +16°C° 0 mm 5 mps 731 mmHg 42%
    14:00 +16°C° 0 mm 5 mps 731 mmHg 42%
    15:00 +16°C° 0 mm 5 mps 731 mmHg 42%
    16:00 +14°C° 0 mm 5 mps 731 mmHg 47%
    17:00 +12°C° 0 mm 4 mps 731 mmHg 53%
    18:00 +10°C° 0 mm 3 mps 731 mmHg 58%
    19:00 +9°C° 0 mm 3 mps 731 mmHg 61%
    20:00 +8°C° 0 mm 3 mps 730 mmHg 64%
    21:00 +8°C° 0 mm 3 mps 730 mmHg 67%
    22:00 +7°C° 0 mm 2 mps 730 mmHg 70%
    23:00 +6°C° 0 mm 2 mps 730 mmHg 72%

    30 September, Sunday

    Time Temperature Precipitation Wind Pressure Humidity
    00:00 +6°C° 0 mm 2 mps 729 mmHg 75%
    01:00 +5°C° 0 mm 2 mps 729 mmHg 76%
    02:00 +6°C° 0 mm 1 mps 729 mmHg 78%
    03:00 +6°C° 0 mm 1 mps 728 mmHg 79%
    04:00 +6°C° 0 mm 1 mps 728 mmHg 80%
    05:00 +6°C° 0 mm 1 mps 728 mmHg 80%
    06:00 +6°C° 0 mm 1 mps 728 mmHg 80%
    07:00 +9°C° 0 mm 1 mps 728 mmHg 72%
    08:00 +13°C° 0 mm 1 mps 728 mmHg 64%
    09:00 +16°C° 0 mm 1 mps 728 mmHg 56%
    10:00 +18°C° 0 mm 1 mps 728 mmHg 53%
    11:00 +20°C° 0 mm 1 mps 727 mmHg 50%
    12:00 +22°C° 0 mm 1 mps 727 mmHg 46%
    13:00 +22°C° 0 mm 1 mps 727 mmHg 47%
    14:00 +22°C° 0 mm 1 mps 726 mmHg 48%
    15:00 +22°C° 0 mm 1 mps 726 mmHg 48%
    16:00 +20°C° 0 mm 1 mps 725 mmHg 58%
    17:00 +16°C° 0 mm 1 mps 725 mmHg 67%
    18:00 +13°C° 0 mm 1 mps 725 mmHg 77%
    19:00 +13°C° 0 mm 1 mps 725 mmHg 79%
    20:00 +12°C° 0 mm 1 mps 724 mmHg 81%
    21:00 +12°C° 0 mm 1 mps 724 mmHg 83%
    22:00 +11°C° 0 mm 1 mps 724 mmHg 84%
    23:00 +11°C° 0 mm 1 mps 724 mmHg 85%

    1 October, Monday

    Time Temperature Precipitation Wind Pressure Humidity
    00:00 +11°C° 0 mm 1 mps 723 mmHg 86%
    01:00 +11°C° 0.7 mm 1 mps 723 mmHg 87%
    02:00 +11°C° 0.7 mm 1 mps 723 mmHg 88%
    03:00 +11°C° 0.7 mm 1 mps 723 mmHg 90%
    04:00 +11°C° 0.5 mm 1 mps 723 mmHg 90%
    05:00 +11°C° 0.5 mm 1 mps 723 mmHg 91%
    06:00 +11°C° 0.5 mm 1 mps 724 mmHg 91%
    07:00 +11°C° 0.2 mm 1 mps 724 mmHg 90%
    08:00 +11°C° 0.2 mm 1 mps 724 mmHg 88%
    09:00 +11°C° 0.2 mm 1 mps 724 mmHg 86%
    10:00 +13°C° 0 mm 2 mps 725 mmHg 75%
    11:00 +14°C° 0 mm 2 mps 725 mmHg 64%
    12:00 +14°C° 0 mm 3 mps 725 mmHg 53%
    13:00 +14°C° 0 mm 3 mps 725 mmHg 51%
    14:00 +14°C° 0 mm 3 mps 725 mmHg 49%
    15:00 +14°C° 0 mm 3 mps 724 mmHg 47%
    16:00 +14°C° 0 mm 2 mps 725 mmHg 53%
    17:00 +12°C° 0 mm 2 mps 725 mmHg 60%
    18:00 +10°C° 0 mm 1 mps 725 mmHg 66%
    19:00 +10°C° 0 mm 1 mps 725 mmHg 68%
    20:00 +10°C° 0 mm 1 mps 725 mmHg 71%
    21:00 +9°C° 0 mm 1 mps 726 mmHg 73%
    22:00 +8°C° 0 mm 2 mps 726 mmHg 77%
    23:00 +7°C° 0 mm 2 mps 726 mmHg 81%
    Show more